Location: Bourg-d�Oueil
(42.8588°N, 0.4991°E)
Time: 02:57:48
(UTC+00:00)

Spot 4 - Pass Details

Date: 16 June 2021
Orbit: 705 x 722 km, 98.3° (Epoch: 04 August)

Event Time Altitude Azimuth Distance (km) Brightness Sun altitude
Exits shadow 23:31:31 46° 238° (WSW) 956 4.3 -23.5°
Maximum altitude 23:32:05 48° 261° (W) 926 4.3 -23.5°
Drops below altitude 10° 23:36:43 10° 335° (NNW) 2,189 7.3 -23.6°
Sets 23:39:03 0° 341° (NNW) 3,110 8.5 -23.6°
